April 19, 2024
Temp
 
60.4 °F
 
Dew Pt.
 
52.8 °F
 
Humidity
 
76%
 
Pressure
 
1014.9 hPa 
  rising slowly
Wind
 
0.0 mph 
    WSW
Rain
 
0.00 in 
  0.00 in/hr
UV index
 
---  
 
Solar rad.
 
100 W/m²
 
Statistics - 4/19/2024
Max Temp 60.3 °F  10:45 am
Min Temp 56.0 °F  6:55 am
Max Dew Pt 52.8 °F  10:40 am
Min Dew Pt 50.9 °F  6:45 am
Max Pressure 1015.0 hPa  10:45 am
Min Pressure 1013.3 hPa  6:00 am
Max Wind 4 mph  10:25 am
Max UV —   —
Max Solar —   —
Max Rainfall Rate —   —
Total Precipitation —   
Current Temp 60.3 °F  10:45 am
Temp 24hr ago 65.8 °F  10:45 am
Difference -5.5 °F  
Temp Rate +6.7 °F/hr  
Pressure Rate +0.4 hPa/hr  
time temp dew pt pressure uv solar wind wind speed rainfall rate
00:00 57.2 °F 52.7 °F 1014.8 hPa  Calm    
00:05 57.1 °F 52.6 °F 1014.8 hPa  Calm    
00:10 57.2 °F 52.7 °F 1014.7 hPa  Calm    
00:15 57.2 °F 52.7 °F 1014.7 hPa  Calm    
00:20 57.1 °F 52.6 °F 1014.6 hPa  Calm    
00:25 57.1 °F 52.6 °F 1014.5 hPa  Calm    
00:30 57.1 °F 52.6 °F 1014.4 hPa  Calm    
00:35 57.1 °F 52.6 °F 1014.5 hPa  Calm    
00:40 57.0 °F 52.5 °F 1014.5 hPa  Calm    
00:45 57.1 °F 52.6 °F 1014.4 hPa  Calm    
00:50 57.1 °F 52.6 °F 1014.4 hPa  Calm    
00:55 57.1 °F 52.6 °F 1014.5 hPa  Calm    
01:00 57.1 °F 52.6 °F 1014.6 hPa  Calm    
01:05 57.1 °F 52.6 °F 1014.6 hPa  Calm    
01:10 57.1 °F 52.6 °F 1014.6 hPa  Calm    
01:15 57.1 °F 52.6 °F 1014.7 hPa  Calm    
01:20 57.1 °F 52.6 °F 1014.6 hPa  Calm    
01:25 57.1 °F 52.6 °F 1014.6 hPa  Calm    
01:30 57.1 °F 52.6 °F 1014.6 hPa  Calm    
01:35 57.0 °F 52.5 °F 1014.7 hPa  W 1 mph   
01:40 57.0 °F 52.5 °F 1014.7 hPa  W 1 mph   
01:45 56.9 °F 52.4 °F 1014.6 hPa  Calm    
01:50 56.9 °F 52.4 °F 1014.6 hPa  Calm    
01:55 56.9 °F 52.4 °F 1014.5 hPa  Calm    
02:00 56.8 °F 52.3 °F 1014.4 hPa  Calm    
02:05 56.8 °F 52.3 °F 1014.3 hPa  Calm    
02:10 56.8 °F 52.3 °F 1014.3 hPa  Calm    
02:15 56.8 °F 52.3 °F 1014.2 hPa  Calm    
02:20 56.8 °F 52.3 °F 1014.1 hPa  Calm    
02:25 56.8 °F 52.3 °F 1014.2 hPa  Calm    
02:30 56.8 °F 52.3 °F 1014.2 hPa  Calm    
02:35 56.8 °F 52.3 °F 1014.1 hPa  Calm    
02:40 56.8 °F 52.3 °F 1013.9 hPa  Calm    
02:45 56.8 °F 52.3 °F 1013.9 hPa  Calm    
02:50 56.8 °F 52.3 °F 1013.7 hPa  Calm    
02:55 56.8 °F 52.3 °F 1013.6 hPa  Calm    
03:00 56.8 °F 52.3 °F 1013.5 hPa  Calm    
03:05 56.7 °F 52.2 °F 1013.6 hPa  Calm    
03:10 56.7 °F 52.2 °F 1013.7 hPa  Calm    
03:15 56.7 °F 52.2 °F 1013.7 hPa  Calm    
03:20 56.6 °F 52.1 °F 1013.8 hPa  Calm    
03:25 56.6 °F 52.1 °F 1013.8 hPa  Calm    
03:30 56.5 °F 52.0 °F 1013.9 hPa  Calm    
03:35 56.4 °F 51.9 °F 1013.9 hPa  Calm    
03:40 56.4 °F 51.9 °F 1013.9 hPa  Calm    
03:45 56.4 °F 51.9 °F 1013.9 hPa  Calm    
03:50 56.4 °F 51.9 °F 1013.9 hPa  Calm    
03:55 56.4 °F 51.9 °F 1013.9 hPa  Calm    
04:00 56.3 °F 51.8 °F 1013.9 hPa  Calm    
04:05 56.4 °F 51.9 °F 1013.8 hPa  Calm    
04:10 56.3 °F 51.8 °F 1013.8 hPa  Calm    
04:15 56.3 °F 51.8 °F 1013.9 hPa  Calm    
04:20 56.3 °F 51.8 °F 1013.8 hPa  Calm    
04:25 56.3 °F 51.8 °F 1013.7 hPa  Calm    
04:30 56.3 °F 51.8 °F 1013.6 hPa  Calm    
04:35 56.3 °F 51.8 °F 1013.6 hPa  Calm    
04:40 56.3 °F 51.8 °F 1013.5 hPa  Calm    
04:45 56.3 °F 51.8 °F 1013.5 hPa  Calm    
04:50 56.3 °F 51.8 °F 1013.5 hPa  Calm    
04:55 56.3 °F 51.8 °F 1013.5 hPa  Calm    
05:00 56.3 °F 51.8 °F 1013.4 hPa  Calm    
05:05 56.3 °F 51.8 °F 1013.4 hPa  Calm    
05:10 56.3 °F 51.8 °F 1013.5 hPa  Calm    
05:15 56.4 °F 51.9 °F 1013.4 hPa  Calm    
05:20 56.4 °F 51.9 °F 1013.4 hPa  Calm    
05:25 56.4 °F 51.6 °F 1013.4 hPa  Calm    
05:30 56.4 °F 51.6 °F 1013.5 hPa  Calm    
05:35 56.4 °F 51.6 °F 1013.5 hPa  Calm    
05:40 56.4 °F 51.6 °F 1013.4 hPa  Calm    
05:45 56.4 °F 51.6 °F 1013.4 hPa  Calm    
05:50 56.4 °F 51.6 °F 1013.3 hPa  Calm    
05:55 56.5 °F 51.7 °F 1013.3 hPa  Calm    
06:00 56.4 °F 51.6 °F 1013.3 hPa  Calm    
06:05 56.4 °F 51.3 °F 1013.5 hPa  Calm    
06:10 56.3 °F 51.2 °F 1013.5 hPa  Calm    
06:15 56.2 °F 51.1 °F 1013.7 hPa  Calm    
06:20 56.0 °F 50.9 °F 1013.6 hPa  Calm    
06:25 56.0 °F 50.9 °F 1013.6 hPa  Calm    
06:30 56.0 °F 50.9 °F 1013.6 hPa  Calm    
06:35 56.0 °F 50.9 °F 1013.6 hPa  Calm    
06:40 56.0 °F 50.9 °F 1013.7 hPa  Calm    
06:45 56.0 °F 50.9 °F 1013.8 hPa  Calm    
06:50 56.1 °F 51.0 °F 1013.8 hPa  Calm    
06:55 56.1 °F 51.3 °F 1013.9 hPa  Calm    
07:00 56.2 °F 51.4 °F 1014.0 hPa  Calm    
07:05 56.2 °F 51.4 °F 1014.0 hPa  Calm    
07:10 56.3 °F 51.5 °F 1014.1 hPa  Calm    
07:15 56.2 °F 51.4 °F 1014.1 hPa  Calm    
07:20 56.2 °F 51.1 °F 1014.1 hPa  Calm    
07:25 56.2 °F 51.1 °F 1014.1 hPa  Calm    
07:30 56.3 °F 51.2 °F 1014.1 hPa  Calm    
07:35 56.3 °F 51.2 °F 1014.1 hPa  Calm    
07:40 56.4 °F 51.3 °F 1014.2 hPa  Calm    
07:45 56.5 °F 51.4 °F 1014.2 hPa  Calm    
07:50 56.5 °F 51.4 °F 1014.2 hPa  Calm    
07:55 56.6 °F 51.5 °F 1014.3 hPa  Calm    
08:00 56.6 °F 51.5 °F 1014.3 hPa  Calm    
08:05 56.6 °F 51.5 °F 1014.2 hPa  Calm    
08:10 56.7 °F 51.6 °F 1014.2 hPa  Calm    
08:15 56.7 °F 51.6 °F 1014.3 hPa  Calm    
08:20 56.7 °F 51.6 °F 1014.2 hPa  Calm    
08:25 56.8 °F 51.7 °F 1014.2 hPa  Calm    
08:30 56.9 °F 51.5 °F 1014.2 hPa  Calm    
08:35 56.8 °F 51.4 °F 1014.3 hPa  Calm    
08:40 56.9 °F 51.5 °F 1014.3 hPa  Calm    
08:45 57.0 °F 51.6 °F 1014.4 hPa  Calm    
08:50 57.1 °F 51.7 °F 1014.5 hPa  Calm    
08:55 57.1 °F 51.7 °F 1014.5 hPa  Calm    
09:00 57.2 °F 51.8 °F 1014.7 hPa  Calm    
09:05 57.2 °F 51.8 °F 1014.7 hPa  Calm    
09:10 57.4 °F 51.9 °F 1014.6 hPa  Calm    
09:15 57.5 °F 51.7 °F 1014.6 hPa  Calm    
09:20 57.5 °F 51.7 °F 1014.7 hPa  Calm    
09:25 57.6 °F 51.8 °F 1014.8 hPa  Calm    
09:30 57.6 °F 51.5 °F 1014.8 hPa  Calm    
09:35 57.6 °F 51.5 °F 1014.8 hPa  Calm    
09:40 57.6 °F 51.5 °F 1014.8 hPa  Calm    
09:45 57.7 °F 51.6 °F 1014.8 hPa  Calm    
09:50 57.8 °F 51.7 °F 1014.9 hPa  Calm    
09:55 58.0 °F 51.9 °F 1014.9 hPa  Calm    
10:00 58.1 °F 51.6 °F 1014.9 hPa  SW 1 mph   
10:05 58.2 °F 51.4 °F 1014.9 hPa  Calm    
10:10 58.3 °F 51.5 °F 1015.0 hPa  Calm    
10:15 58.7 °F 52.2 °F 1015.0 hPa  SW 2 mph   
10:20 59.0 °F 52.1 °F 1014.9 hPa  SW 4 mph   
10:25 59.2 °F 52.3 °F 1014.9 hPa  SSW 4 mph   
10:30 59.5 °F 52.6 °F 1014.9 hPa  WSW 1 mph   
10:35 59.8 °F 52.6 °F 1014.9 hPa  WSW 1 mph   
10:40 60.0 °F 52.8 °F 1014.9 hPa  Calm    
10:45 60.3 °F 52.7 °F 1015.0 hPa  WSW 3 mph